K3MJW-2 Weather Reports


Display with metric or nautical units.
time (UTC)temp
F
wind
direction
speed
MPH
gust
MPH
rain 1hr
in
rain 24hr
in
rain mn
in
humidity
%
barometer
mb
20180221091006 64 230 7.0 10.0 0.00 0.00 0.00 36 1020.6
20180221090005 64 229 6.0 10.0 0.00 0.00 0.00 36 1020.8
20180221085006 64 224 6.0 12.0 0.00 0.00 0.00 36 1020.8
20180221084006 64 230 6.0 10.0 0.00 0.00 0.00 35 1020.7
20180221083006 64 228 6.0 10.0 0.00 0.00 0.00 35 1020.8
20180221082008 64 239 6.0 10.0 0.00 0.00 0.00 35 1020.8
20180221081006 64 229 6.0 10.0 0.00 0.00 0.00 34 1020.8
20180221080007 64 227 6.0 9.0 0.00 0.00 0.00 35 1020.9
20180221075005 64 226 6.0 12.0 0.00 0.00 0.00 35 1021.2
20180221074007 64 224 6.0 9.0 0.00 0.00 0.00 34 1021.2
20180221073005 64 225 6.0 9.0 0.00 0.00 0.00 33 1021.3
20180221072006 65 228 6.0 9.0 0.00 0.00 0.00 33 1021.3
20180221071006 65 233 7.0 12.0 0.00 0.00 0.00 33 1021.3
20180221070005 65 219 7.0 10.0 0.00 0.00 0.00 32 1021.3
20180221065006 65 227 6.0 12.0 0.00 0.00 0.00 32 1021.3
20180221064006 65 221 6.0 10.0 0.00 0.00 0.00 31 1021.3
20180221063005 65 228 6.0 9.0 0.00 0.00 0.00 31 1021.4
20180221062006 65 224 6.0 12.0 0.00 0.00 0.00 30 1021.4
20180221061006 65 216 7.0 9.0 0.00 0.00 0.00 29 1021.3
20180221060005 65 221 6.0 10.0 0.00 0.00 0.00 29 1021.5
20180221055006 65 220 6.0 9.0 0.00 0.00 0.00 28 1021.3
20180221054005 66 219 5.0 8.0 0.00 0.00 0.00 27 1021.5
20180221053006 66 222 6.0 8.0 0.00 0.00 0.00 27 1021.5
20180221052006 66 213 6.0 9.0 0.00 0.00 0.00 26 1021.5
20180221051006 66 226 5.0 8.0 0.00 0.00 0.00 26 1021.5
20180221050005 66 225 5.0 7.0 0.00 0.00 0.00 26 1021.4
20180221045006 67 226 5.0 7.0 0.00 0.00 0.00 25 1021.3
20180221044006 67 227 5.0 9.0 0.00 0.00 0.00 25 1021.2
20180221043005 67 226 5.0 8.0 0.00 0.00 0.00 25 1021.0
20180221042006 67 224 5.0 8.0 0.00 0.00 0.00 25 1020.9
20180221041006 67 227 6.0 9.0 0.00 0.00 0.00 24 1020.9
20180221040006 67 224 5.0 7.0 0.00 0.00 0.00 25 1020.7
20180221035006 67 227 5.0 7.0 0.00 0.00 0.00 25 1020.6
20180221034005 67 228 5.0 7.0 0.00 0.00 0.00 25 1020.6
20180221033006 67 227 5.0 8.0 0.00 0.00 0.00 25 1020.5
20180221032006 67 226 5.0 7.0 0.00 0.00 0.00 26 1020.6
20180221031006 67 229 5.0 7.0 0.00 0.00 0.00 26 1020.5
20180221030005 66 229 5.0 7.0 0.00 0.00 0.00 26 1020.4
20180221025005 67 227 5.0 7.0 0.00 0.00 0.00 26 1020.5
20180221024005 67 220 5.0 7.0 0.00 0.00 0.00 25 1020.5
20180221023006 67 223 3.0 7.0 0.00 0.00 0.00 25 1020.5
20180221022006 68 230 1.0 6.0 0.00 0.00 0.00 24 1020.5
20180221021005 68 225 3.0 6.0 0.00 0.00 0.00 24 1020.4
20180221020007 68 226 3.0 6.0 0.00 0.00 0.00 24 1020.3
20180221015006 68 226 3.0 5.0 0.00 0.00 0.00 25 1020.4
20180221014006 68 226 3.0 5.0 0.00 0.00 0.00 25 1020.3
20180221013005 68 225 3.0 5.0 0.00 0.00 0.00 24 1020.4
20180221012005 68 225 3.0 5.0 0.00 0.00 0.00 24 1020.3
20180221011005 69 223 3.0 6.0 0.00 0.00 0.00 23 1020.2
20180221010006 69 196 0.0 5.0 0.00 0.00 0.00 23 1020.2
20180221005006 69 217 2.0 5.0 0.00 0.00 0.00 22 1020.3
20180221004005 70 236 0.0 0.0 0.00 0.00 0.00 21 1020.3
20180221003006 70 236 0.0 0.0 0.00 0.00 0.00 20 1020.3
20180221002005 71 236 0.0 0.0 0.00 0.00 0.00 20 1020.2
20180221001006 71 236 0.0 5.0 0.00 0.00 0.00 19 1020.2
20180221000006 71 208 2.0 5.0 0.00 0.00 0.00 19 1020.1
20180220235006 71 209 2.0 6.0 0.00 0.00 0.00 18 1020.1
20180220234005 72 216 0.0 0.0 0.00 0.00 0.00 17 1020.1
20180220233006 72 216 0.0 0.0 0.00 0.00 0.00 16 1020.1
20180220232006 73 216 1.0 5.0 0.00 0.00 0.00 16 1020.0
20180220231006 73 205 0.0 3.0 0.00 0.00 0.00 16 1019.9
20180220230006 73 228 3.0 5.0 0.00 0.00 0.00 15 1019.9
20180220225006 74 226 0.0 0.0 0.00 0.00 0.00 15 1019.8
20180220224006 74 226 0.0 0.0 0.00 0.00 0.00 14 1019.7
20180220223006 75 226 0.0 0.0 0.00 0.00 0.00 14 1019.6
20180220222005 75 226 0.0 6.0 0.00 0.00 0.00 14 1019.4
20180220221005 75 221 3.0 8.0 0.00 0.00 0.00 13 1019.3
20180220220006 75 249 6.0 7.0 0.00 0.00 0.00 13 1019.3
20180220215006 76 249 6.0 9.0 0.00 0.00 0.00 12 1019.1
20180220214006 76 250 6.0 9.0 0.00 0.00 0.00 12 1019.1
20180220213005 76 264 6.0 8.0 0.00 0.00 0.00 12 1019.0
20180220212006 76 264 7.0 10.0 0.00 0.00 0.00 11 1019.1
20180220211006 76 268 7.0 10.0 0.00 0.00 0.00 12 1019.1
20180220210005 76 245 6.0 10.0 0.00 0.00 0.00 12 1018.9
20180220205006 76 226 6.0 9.0 0.00 0.00 0.00 14 1019.1
20180220204006 76 266 6.0 12.0 0.00 0.00 0.00 14 1019.1
20180220203006 76 247 8.0 13.0 0.00 0.00 0.00 15 1019.0
20180220202006 76 271 6.0 9.0 0.00 0.00 0.00 15 1019.2
20180220201006 76 274 7.0 12.0 0.00 0.00 0.00 16 1019.1
20180220200006 76 258 8.0 12.0 0.00 0.01 0.00 16 1019.2
20180220195006 76 242 6.0 9.0 0.00 0.01 0.00 16 1019.3
20180220194005 76 248 3.0 9.0 0.00 0.01 0.00 17 1019.3
20180220193005 76 270 6.0 10.0 0.00 0.01 0.00 17 1019.4
20180220192006 75 250 7.0 12.0 0.00 0.01 0.00 18 1019.4
20180220191005 75 258 9.0 13.0 0.00 0.01 0.00 18 1019.5
20180220190005 75 255 9.0 14.0 0.00 0.01 0.00 19 1019.6
20180220185005 74 286 7.0 14.0 0.00 0.02 0.00 20 1019.6
20180220184006 74 271 8.0 13.0 0.00 0.02 0.00 21 1019.7
20180220183005 74 263 7.0 12.0 0.00 0.02 0.00 21 1019.8
20180220182006 74 268 7.0 13.0 0.00 0.02 0.00 23 1019.9
20180220181006 73 261 9.0 15.0 0.00 0.02 0.00 22 1020.0
20180220180005 73 269 8.0 12.0 0.00 0.02 0.00 24 1020.2
20180220175006 73 270 6.0 13.0 0.00 0.02 0.00 26 1020.3
20180220174006 73 263 9.0 15.0 0.00 0.02 0.00 24 1020.4
20180220173006 73 273 8.0 13.0 0.00 0.03 0.00 26 1020.5
20180220172006 72 248 7.0 13.0 0.00 0.04 0.00 29 1020.7
20180220171005 72 266 8.0 12.0 0.00 0.07 0.00 29 1020.7
20180220170005 71 260 12.0 15.0 0.00 0.15 0.00 30 1020.9
20180220165005 71 259 12.0 16.0 0.00 0.19 0.00 31 1021.2
20180220164005 70 248 12.0 18.0 0.00 0.21 0.00 32 1021.3
20180220163005 70 248 9.0 14.0 0.00 0.24 0.00 32 1021.5
20180220162005 70 256 9.0 15.0 0.00 0.27 0.00 34 1021.6
20180220161006 69 269 7.0 15.0 0.00 0.33 0.00 35 1021.7
20180220160006 69 249 7.0 15.0 0.00 0.33 0.00 36 1021.9
20180220155006 69 278 7.0 12.0 0.00 0.34 0.00 36 1022.1
20180220154005 68 263 5.0 13.0 0.00 0.40 0.00 38 1022.2
20180220153005 67 259 9.0 13.0 0.00 0.44 0.00 39 1022.3
20180220152006 67 267 6.0 12.0 0.00 0.46 0.00 42 1022.3
20180220151006 66 277 8.0 13.0 0.00 0.48 0.00 41 1022.4
20180220150006 66 247 7.0 12.0 0.00 0.48 0.00 43 1022.5
20180220145006 65 222 7.0 12.0 0.00 0.48 0.00 44 1022.6
20180220144006 66 249 7.0 10.0 0.00 0.50 0.00 45 1022.6
20180220143005 65 239 6.0 9.0 0.00 0.50 0.00 48 1022.6
20180220142005 64 243 6.0 10.0 0.00 0.51 0.00 49 1022.6
20180220141006 64 237 6.0 8.0 0.00 0.52 0.00 51 1022.5
20180220140006 63 235 7.0 14.0 0.00 0.52 0.00 52 1022.5
20180220135006 62 233 7.0 9.0 0.00 0.52 0.00 56 1022.5
20180220134006 62 231 7.0 9.0 0.00 0.52 0.00 57 1022.4
20180220133005 61 231 6.0 9.0 0.00 0.52 0.00 59 1022.4
20180220132006 61 218 6.0 10.0 0.00 0.52 0.00 60 1022.4
20180220131005 61 222 6.0 9.0 0.00 0.52 0.00 60 1022.4
20180220130005 60 219 6.0 8.0 0.00 0.52 0.00 62 1022.4
20180220125005 60 225 6.0 8.0 0.00 0.52 0.00 62 1022.4
20180220124006 60 222 5.0 7.0 0.00 0.52 0.00 63 1022.3
20180220123005 60 222 3.0 7.0 0.00 0.52 0.00 62 1022.2
20180220122005 60 223 5.0 8.0 0.00 0.52 0.00 62 1022.0
20180220121006 60 223 5.0 7.0 0.00 0.52 0.00 63 1021.9
20180220120005 60 222 5.0 7.0 0.00 0.52 0.00 62 1022.0
20180220115005 60 221 5.0 7.0 0.00 0.52 0.00 62 1021.8
20180220114006 60 222 5.0 7.0 0.00 0.52 0.00 62 1021.8
20180220113006 60 220 5.0 7.0 0.00 0.52 0.00 62 1021.8
20180220112006 60 214 5.0 7.0 0.00 0.52 0.00 62 1021.8
20180220111005 60 213 4.0 7.0 0.00 0.52 0.00 61 1021.7
20180220110006 60 214 5.0 7.0 0.00 0.52 0.00 61 1021.6
20180220105005 60 238 6.0 7.0 0.00 0.52 0.00 61 1021.5
20180220104005 60 238 5.0 7.0 0.00 0.52 0.00 61 1021.5
20180220103006 60 238 5.0 8.0 0.00 0.52 0.00 61 1021.4
20180220102007 60 238 6.0 7.0 0.00 0.52 0.00 61 1021.4
20180220101006 60 240 5.0 7.0 0.00 0.52 0.00 61 1021.3
20180220100005 61 237 5.0 8.0 0.00 0.52 0.00 61 1021.0
20180220095005 61 238 6.0 9.0 0.00 0.52 0.00 61 1020.9
20180220094005 60 235 6.0 8.0 0.00 0.52 0.00 61 1020.9
20180220093006 60 235 6.0 8.0 0.00 0.52 0.00 61 1020.7